User: anonymous   Login
Location: Poughquag
(41.6090°N, 73.6820°W)
Time: 07:40:16
(UTC-04:00)
Language:

S-56A Canister/Altair - Orbit

View from above orbital plane
View from above orbital plane
View from above satellite
View from above satellite

Ground track
Ground track

The orbit data is extracted from the following two-line orbital elements,

1    82U 61004B   20149.76776154 -.00000066  00000-0 -12387-4 0  9999
2    82  38.8582 271.2828 1174179 348.5484   9.0503 12.26063410805399
Epoch (UTC): 28 May 2020 18:25:34
Eccentricity: 0.1174179
inclination: 38.8582°
perigee height: 633 km
apogee height: 2499 km
right ascension of ascending node: 271.2828°
argument of perigee: 348.5484°
revolutions per day: 12.26063410
mean anomaly at epoch: 9.0503°
orbit number at epoch: 80539

The dashed part of the orbit path shows where the satellite is in the earth's shadow,  

DLR